Satellite: OKEAN-4
Catalog number: 23317
Epoch time:      09211.69549868
Element set:     976
Inclination:      082.5419 deg
RA of node:       293.8878 deg
Eccentricity:    0.0020853
Arg of perigee:   217.8195 deg
Mean anomaly:     142.1558 deg
Mean motion:   14.82711327 rev/day
Decay rate:       1.65e-06 rev/day^2
Epoch rev:           79881
Checksum:              352

Satellite: NOAA-14
Catalog number: 23455
Epoch time:      09210.77576440
Element set:    0707
Inclination:      098.9058 deg
RA of node:       288.3033 deg
Eccentricity:    0.0010374
Arg of perigee:   073.2942 deg
Mean anomaly:     286.9367 deg
Mean motion:   14.13766918 rev/day
Decay rate:        4.3e-07 rev/day^2
Epoch rev:           75194
Checksum:              329

Satellite: NOAA-15
Catalog number: 25338
Epoch time:      09210.68047171
Element set:    0023
Inclination:      098.5856 deg
RA of node:       198.9605 deg
Eccentricity:    0.0009623
Arg of perigee:   297.4933 deg
Mean anomaly:     062.5239 deg
Mean motion:   14.24775315 rev/day
Decay rate:       -5.0e-07 rev/day^2
Epoch rev:           58282
Checksum:              322

Satellite: RESURS
Catalog number: 25394
Epoch time:      09210.94590978
Element set:    0273
Inclination:      098.3373 deg
RA of node:       241.1129 deg
Eccentricity:    0.0002435
Arg of perigee:   078.8568 deg
Mean anomaly:     281.2885 deg
Mean motion:   14.24186969 rev/day
Decay rate:        8.0e-08 rev/day^2
Epoch rev:           57448
Checksum:              338

Satellite: FENGYUN1
Catalog number: 25730
Epoch time:      09211.91725586
Element set:     815
Inclination:      098.7561 deg
RA of node:       180.7691 deg
Eccentricity:    0.0023273
Arg of perigee:   090.3784 deg
Mean anomaly:     270.0056 deg
Mean motion:   14.07932693 rev/day
Decay rate:       4.75e-06 rev/day^2
Epoch rev:           52647
Checksum:              317

Satellite: OKEAN-0
Catalog number: 25860
Epoch time:      09211.83327908
Element set:     744
Inclination:      097.7891 deg
RA of node:       191.2853 deg
Eccentricity:    0.0001849
Arg of perigee:   060.1428 deg
Mean anomaly:     299.9963 deg
Mean motion:   14.73581859 rev/day
Decay rate:        9.0e-08 rev/day^2
Epoch rev:           53957
Checksum:              350

Satellite: NOAA-16
Catalog number: 26536
Epoch time:      09210.65128444
Element set:    0501
Inclination:      099.1763 deg
RA of node:       215.3465 deg
Eccentricity:    0.0011014
Arg of perigee:   157.5075 deg
Mean anomaly:     202.6582 deg
Mean motion:   14.12526559 rev/day
Decay rate:       -2.1e-07 rev/day^2
Epoch rev:           45629
Checksum:              285

Satellite: NOAA-17
Catalog number: 27453
Epoch time:      09210.78950821
Element set:    0505
Inclination:      098.4799 deg
RA of node:       268.3861 deg
Eccentricity:    0.0011530
Arg of perigee:   005.3853 deg
Mean anomaly:     354.7443 deg
Mean motion:   14.24078851 rev/day
Decay rate:      -1.38e-06 rev/day^2
Epoch rev:           36881
Checksum:              324

Satellite: NOAA-18
Catalog number: 28654
Epoch time:      09210.79832901
Element set:    0992
Inclination:      098.9070 deg
RA of node:       153.7112 deg
Eccentricity:    0.0013308
Arg of perigee:   241.6206 deg
Mean anomaly:     118.3628 deg
Mean motion:   14.11273923 rev/day
Decay rate:       -6.1e-07 rev/day^2
Epoch rev:           21596
Checksum:              298

Satellite: NOAA-19
Catalog number: 33591
Epoch time:      09210.78756280
Element set:    0195
Inclination:      098.7461 deg
RA of node:       155.4439 deg
Eccentricity:    0.0015063
Arg of perigee:   119.9672 deg
Mean anomaly:     240.3017 deg
Mean motion:   14.10972960 rev/day
Decay rate:      -1.27e-06 rev/day^2
Epoch rev:           02444
Checksum:              308

/EX
SB KEPS @ AMSAT  $ORB09211.M
Orbital Elements  09211.MISC

HR AMSAT ORBITAL ELEMENTS FOR MANNED AND MISCELLANEOUS SATELLITES
FROM WA5QGD FORT WORTH,TX July 30, 2009
Send Subscribe/unsubscribe to KEPS at 
http://www.amsat.org/mailman/listinfo/keps
BID: ORB09211.M
TO ALL RADIO AMATEURS BT

Satellite: HUBBLE
Catalog number: 20580
Epoch time:      09208.21241285
Element set:    0426
Inclination:      028.4684 deg
RA of node:       201.0699 deg
Eccentricity:    0.0003246
Arg of perigee:   349.8200 deg
Mean anomaly:     010.2333 deg
Mean motion:   15.00818011 rev/day
Decay rate:       2.64e-06 rev/day^2
Epoch rev:           85587
Checksum:              262

Satellite: ISS
Catalog number: 25544
Epoch time:      09210.84190236
Element set:    0313
Inclination:      051.6414 deg
RA of node:       087.8478 deg
Eccentricity:    0.0006397
Arg of perigee:   294.2475 deg
Mean anomaly:     120.8267 deg
Mean motion:   15.74188738 rev/day
Decay rate:      6.591e-05 rev/day^2
Epoch rev:           61267
Checksum:              322

Satellite: CO-58
Catalog number: 28895
Epoch time:      09211.24684483
Element set:     357
Inclination:      098.0523 deg
RA of node:       100.6464 deg
Eccentricity:    0.0017131
Arg of perigee:   210.6435 deg
Mean anomaly:     149.3730 deg
Mean motion:   14.59783963 rev/day
Decay rate:       -4.1e-07 rev/day^2
Epoch rev:           20001
Checksum:              296

